Regional Weather Roundup
Issued by NWS

Home | Current Version | Previous Version | Text Only | Print | Product List | Glossary Off
Versions: 1 2 3 4 5 6 7 8 9 10 11 12 13 14 15 16 17 18 19 20 21 22 23 24 25 26 27 28 29 30 31 32 33 34 35 36 37 38 39 40 41 42 43 44 45 46 47 48 49 50

000
ASUS43 KIND 021959
RWRIN

WEATHER ROUNDUP FOR INDIANA
NATIONAL WEATHER SERVICE INDIANAPOLIS IN
400 PM EDT SUN AUG 02 2015

NOTE: "FAIR" INDICATES FEW OR NO CLOUDS BELOW 12,000 FEET WITH NO
SIGNIFICANT WEATHER AND/OR OBSTRUCTIONS TO VISIBILITY.

* - STATION DOES NOT REPORT WEATHER SUCH AS PRECIPITATION OR FOG.

+ - STATION NOT QUALITY CONTROLLED BY THE NATIONAL WEATHER SERVICE.
    USE DATA WITH CAUTION...ESPECIALLY DEWPOINT AND RELATIVE
    HUMIDITY OBSERVATIONS.

INZ001>003-010>013-019-020-022100-
NORTHWEST INDIANA

CITY           SKY/WX    TMP DP  RH WIND       PRES   REMARKS
GARY /AIRPORT/ MOSUNNY   91  64  40 SW16G31   29.77F
RENSSELAER +   SUNNY     90  64  43 SW16G22   29.82F

$$

LMZ046-743>745-022100-
SOUTHERN LAKE MICHIGAN

STATION/POSITION TIME  TEMP    WIND        PRES    WAVE
                       AIR SEA DIR/SP/G            HT
                 (UTC) (F)     (DEG/KT/KT) (MB)    (FT)
BURNS HARBOR     1920   89     230/ 20     1008.5F
MICHIGAN CITY    1900   85     210/ 22/ 26   N/A
5NW MICH CITY    1900   81 74  240/ 14/ 17   N/A     2

$$

INZ004-005-014>016-021>024-022100-
NORTH CENTRAL INDIANA

CITY           SKY/WX    TMP DP  RH WIND       PRES   REMARKS
ELKHART        MOSUNNY   91  61  35 SW21G29   29.79F
GOSHEN         SUNNY     89  68  49 SW22G29   29.80F
SOUTH BEND     SUNNY     93  61  34 SW24G32   29.79F

$$

INZ006>009-017-018-025>027-022100-
NORTHEAST INDIANA

CITY           SKY/WX    TMP DP  RH WIND       PRES   REMARKS
ANGOLA *+      SUNNY     90  84  84 W17       29.81F HX 115
FORT WAYNE     MOSUNNY   89  62  40 SW17G30   29.85F

$$

INZ028-029-035-036-043>045-051>053-022100-
WEST CENTRAL INDIANA

CITY           SKY/WX    TMP DP  RH WIND       PRES   REMARKS
CRAWFORDSVL +  SUNNY     84  64  51 SW9       29.86
GREENCASTLE +  SUNNY     84  66  54 CALM      29.91F
LAFAYETTE      SUNNY     88  69  53 SW13      29.85F
TERRE HAUTE    MOSUNNY   89  69  51 SW13      29.90F

$$

INZ030>032-037>040-046>048-054>057-064-065-022100-
CENTRAL INDIANA

CITY           SKY/WX    TMP DP  RH WIND       PRES   REMARKS
GREENWOOD *+   SUNNY     86  63  45 SW7       29.93F
INDIANAPOLIS   MOSUNNY   87  66  49 SW14      29.90F
-EAGLE CREEK   MOSUNNY   87  67  51 SW9       29.90F
KOKOMO *+      SUNNY     88  66  48 SW20G30   29.87F
MT COMFORT *+  SUNNY     86  57  37 SW8       29.92F
SHELBYVILLE    SUNNY     87  66  49 S7        29.92F

$$

INZ033-034-041-042-049-050-058-059-022100-
EAST CENTRAL INDIANA

CITY           SKY/WX    TMP DP  RH WIND       PRES   REMARKS
MUNCIE         SUNNY     86  65  49 SW14G22   29.89F

$$

INZ060-061-067>069-081>083-085>088-022100-
SOUTHWEST INDIANA

CITY           SKY/WX    TMP DP  RH WIND       PRES   REMARKS
EVANSVILLE     SUNNY     89  64  43 SW9       29.93F
HUNTINGBURG *+ SUNNY     88  63  42 SW9       29.94F

$$

INZ062-063-066-070>080-084-089>092-022100-
SOUTH CENTRAL AND SOUTHEAST INDIANA

CITY           SKY/WX    TMP DP  RH WIND       PRES   REMARKS
BLOOMINGTON    SUNNY     87  67  51 S10       29.93F
MADISON *+     SUNNY     86  55  35 S8        29.98F
SEYMOUR +      SUNNY     88  59  37 S7        29.94F

$$



USA.gov is the U.S. government's official web portal to all federal, state and local government web resources and services.